Regional Weather Roundup
Issued by NWS

Home | Current Version | Previous Version | Text Only | Print | Product List | Glossary Off
Versions: 1 2 3 4 5 6 7 8 9 10 11 12 13 14 15 16 17 18 19 20 21 22 23 24 25 26 27 28 29 30 31 32 33 34 35 36 37 38 39 40 41 42 43 44 45 46 47 48 49 50

000
ASUS43 KBIS 262102
RWRND

NORTH DAKOTA REGIONAL WEATHER ROUNDUP
NATIONAL WEATHER SERVICE BISMARCK ND
400 PM CDT WED JUL 26 2017

NOTE: "FAIR" INDICATES FEW OR NO CLOUDS BELOW 12,000 FEET WITH NO
SIGNIFICANT WEATHER AND/OR OBSTRUCTIONS TO VISIBILITY.


NDZ001>003-009>011-017-262200-
NORTHWEST NORTH DAKOTA

CITY           SKY/WX    TMP DP  RH WIND       PRES   REMARKS
WILLISTON      SUNNY     88  47  24 VRB5      30.10F
MINOT          FAIR      84  51  31 VRB5      30.12F
MINOT AFB      FAIR      82  50  32 N9        30.11F
$$

NDZ018>021-031>035-040>046-262200-
SOUTHWEST NORTH DAKOTA

CITY           SKY/WX    TMP DP  RH WIND       PRES   REMARKS
BISMARCK       SUNNY     87  51  28 N6G17     30.10F
DICKINSON      SUNNY     88  51  28 S7        30.10F
GARRISON         N/A     84  49  29 NE12G18   30.11F
HETTINGER ARPT SUNNY     88  47  24 VRB6      30.13F
$$

NDZ004>008-012>016-024-026-027-054-262200-
NORTHEAST NORTH DAKOTA

CITY           SKY/WX    TMP DP  RH WIND       PRES   REMARKS
GRAND FORKS    FAIR      83  61  47 N9G18     30.05S
GRND FRKS AFB  FAIR      81  59  47 N15       30.07S
DEVILS LAKE    FAIR      78  56  46 N12       30.12S
$$

NDZ022-023-025-028>030-036>039-047>053-262200-
SOUTHEAST NORTH DAKOTA

CITY           SKY/WX    TMP DP  RH WIND       PRES   REMARKS
FARGO          PTSUNNY   82  62  50 N15G22    30.04F
JAMESTOWN      FAIR      82  57  42 N10       30.09S
$$





USA.gov is the U.S. government's official web portal to all federal, state and local government web resources and services.